Regional Weather Roundup
Issued by NWS Cleveland, OH

Home | Current Version | Previous Version | Graphics & Text | Print | Product List | Glossary On
Versions: 1 2 3 4 5 6 7 8 9 10 11 12 13 14 15 16 17 18 19 20 21 22 23 24 25 26 27 28 29 30 31 32 33 34 35 36 37 38 39 40 41 42 43 44 45 46 47 48 49 50
000
ASUS41 KCLE 261510
RWRCLE
OHIO REGIONAL WEATHER ROUNDUP
NATIONAL WEATHER SERVICE CLEVELAND, OH
1100 AM EDT FRI MAY 26 2017

NOTE: "FAIR" INDICATES FEW OR NO CLOUDS BELOW 12,000 FEET WITH NO
SIGNIFICANT WEATHER AND/OR OBSTRUCTIONS TO VISIBILITY.

OHZ001>008-015>018-024>027-034-035-043-044-261600-
   NORTHWEST OHIO

CITY           SKY/WX    TMP DP  RH WIND       PRES   REMARKS
DEFIANCE       PTSUNNY   59  53  80 W6        29.89R
FINDLAY        CLOUDY    60  52  74 W12       29.88R
TOLEDO EXPRESS CLOUDY    61  52  72 NW9       29.87R
TOLEDO EXEC    CLOUDY    62  53  72 NW9       29.87R
LIMA           PTSUNNY   58  54  86 NW7       29.90R
$$

OHZ009>014-019>023-028>033-038-089-261600-
   NORTHEAST OHIO

CITY           SKY/WX    TMP DP  RH WIND       PRES   REMARKS
CLE-HOPKINS    CLOUDY    61  52  72 NW12      29.85R
CLE-LAKEFRONT  CLOUDY    59  53  80 W12       29.83R
CUY CO. ARPT   CLOUDY    59  52  77 NW14      29.83R
LORAIN-ELYRIA  CLOUDY    57  49  74 NW14      29.85R
ASHTABULA      CLOUDY    55  53  93 NW8       29.81S
AKRON-CANTON   LGT RAIN  58  54  86 NW10      29.84R FOG
WOOSTER        CLOUDY    60  53  77 NW15      29.85R
MANSFIELD      CLOUDY    57  54  89 W8        29.87R
YOUNGSTOWN     CLOUDY    56  51  84 NW12G21   29.81R
$$

OHZ042-051>053-060>062-070>072-077>081-261600-
  SOUTHWEST OHIO

CITY           SKY/WX    TMP DP  RH WIND       PRES   REMARKS
CINC-COVINGTON PTSUNNY   68  58  70 SW6       29.93F
CINC-LUNKEN    SUNNY     70  60  70 W7        29.93F
HAMILTON       SUNNY     69  60  73 VRB5      29.94S
DAYTON         MOSUNNY   67  54  63 W10       29.91F
WRIGHT-PAT AFB PTSUNNY   68  56  64 W14       29.90S
DAYTON GENERAL MOSUNNY   68  56  65 W9        29.91F
WILMINGTON     MOSUNNY   67  58  72 W12       29.91S
$$

OHZ036-037-039>041-045>050-054>059-063>069-073>076-082>088-261600-
  CENTRAL AND SOUTHEAST OHIO

CITY           SKY/WX    TMP DP  RH WIND       PRES   REMARKS
COLUMBUS       PTSUNNY   68  56  65 W13       29.88R
OSU AIRPORT    MOSUNNY   67  57  70 W15       29.88S
BOLTON FIELD   SUNNY     66  55  68 W9G22     29.90R
RICKENBACK AFB MOSUNNY   67  55  66 W10G20    29.89R
NEWARK         PTSUNNY   67  55  65 NW14      29.87S
MARION         CLOUDY    60  53  77 NW12      29.89R
LANCASTER      SUNNY     69  55  60 W10G17    29.90R
ZANESVILLE     PTSUNNY   65  54  67 W12       29.88R
NEW PHILLY     NOT AVBL
$$



USA.gov is the U.S. government's official web portal to all federal, state and local government web resources and services.